Showing default

JILIN-01 GAOFEN 3I, 46461

Orbit data source: Space-Track

JILIN-01 GAOFEN 3I, 46461 is a payload satellite owned by Changguang WJ (CN) in SSO that was launched on Tue, 15 Sep 2020 UTC via a CHANG ZHENG 11 launch vehicle from the Yellow Sea Launch Area, China (YSLA). Payload-class satellites include a variety of spacecraft equipped with specific instruments for various scientific and technological missions. These include communications satellites like Starlink; space stations such as the ISS; scientific satellites like the Hubble; Earth observation satellites from companies like Planet Labs, Umbra, and HawkEye 360; GPS; miniature CubeSats for education and research; and military/defense satellites.

Loading next visibility...
Identifier
46461, 2020-065H
Orbit
SSO
Last TLE update
4 hours ago
Origin
Flag of CNCGSTL (CN / PRC)
Manufacturer
Changguang WJ
Mission
Operational Commercial Imaging
Bus & Motor
JL-1, Unknown motor
Mass
42 kg wet, 42 kg dry
Launch date (UTC)
2020-09-15 (5 years ago)
Launch vehicle
CHANG ZHENG 11
Launch site
Yellow Sea Launch Area, China (YSLA)
Object type
Payload
Rocket body
Debris
Shape & HBR
Box + 2 Pan, 1.5 m
Radar Cross Section
2.000 m², Medium (>0.1 m² and < 1m²)

Expand to show TLE details & history

TLE from 4 hours ago
0 JILIN-01 GAOFEN 3I
1 46461U 20065H   25130.58928475  .00024756  00000-0  60768-3 0  9997
2 46461  97.2912 179.3542 0022925 120.2726 240.0793 15.40399758257611
Epoch: 2025-05-10T14:08Z
Definitive object data (Epoch: 2025-05-10T14:08:34.202Z)
Latitude
-0.00005°
Longitude
98.58279°
Altitude
455.881 km
Speed
7.635 km/s
True Right ascension
11h 57m 25s
True Declination
0° 00' 00"
Sunlit
Object was in full shadow at TLE epoch
Visualization TLE readout
Latitude
-71.38634°
Longitude
120.96089°
Altitude
486.695 km
Speed
7.612 km/s
Apparent Right ascension
14h 20m 55s
Apparent Declination
-56° 24' 53"
Sunlit
Object is in full shadow
Visualization observer readout
Local Sidereal Time
02:44:58
Azimuth
168.549° S
Elevation
-73.037°
Doppler factor
1
Orbital elements
Apogee altitude
457.497 km
Perigee altitude
426.227 km
Semi-major axis
6,819.999 km
Eccentricity
0.0022925
Inclination
97.2912°
RAAN
179.3542°
Arg. of periapsis
120.2726°
True anomaly
239.85194°
Mean anomaly
240.0793°
Eccentric anomaly
239.96559°
Mean motion
3.8536 °/min
BSTAR
0.00060768
Orbital period
93.42 mins
Loading maneuver chart data...
Loading SW <> Apogee altitude chart data...
Loading historical data...
Loading historical data...
Loading historical data...
Loading historical data...
Loading historical data...
Loading historical data...
Loading historical data...

JILIN-01 GAOFEN 3I Visibility forecast

Observer location: undefined°, undefined°

Span
Click to sort rows by Start time (UTC) header in descending order
Start Az.
Max El. time (UTC)
Max El. Az.
Max El.
End time (UTC)
End Az.
5 mins2025-05-11 02:45:12.611Z132.123° SE2025-05-11 02:48:12.611Z55.765° ENE25.91°2025-05-11 02:50:12.611Z14.158° NNE
4 mins2025-05-11 15:40:12.611Z49.638° ENE2025-05-11 15:41:12.611Z79.287° E28.373°2025-05-11 15:44:12.611Z162.127° S
|